This is the latest recevied weather packets stored in our database for station/object DL4YM-13. If no packets are shown the sender has not sent any weather packets the latest 10 day(s).
| Time | Temp. | Humidity | Pressure | Rain* | Wind** | Luminosity | Snow |
|---|---|---|---|---|---|---|---|
| 1777999527 | 11.11° C | 98% | 992.5 hPa | - | - | - | - |
| 1777998926 | 11.11° C | 98% | 992.5 hPa | - | - | - | - |
| 1777998327 | 11.11° C | 98% | 992.5 hPa | - | - | - | - |
| 1777997727 | 11.11° C | 98% | 992.5 hPa | - | - | - | - |
| 1777997127 | 11.11° C | 98% | 992.6 hPa | - | - | - | - |
| 1777996527 | 11.11° C | 99% | 992.7 hPa | - | - | - | - |
| 1777995927 | 11.11° C | 99% | 992.7 hPa | - | - | - | - |
| 1777995327 | 11.11° C | 98% | 993 hPa | - | - | - | - |
| 1777994726 | 11.11° C | 98% | 992.9 hPa | - | - | - | - |
| 1777994126 | 11.11° C | 99% | 992.9 hPa | - | - | - | - |
| 1777993527 | 11.11° C | 99% | 992.9 hPa | - | - | - | - |
| 1777992927 | 11.11° C | 99% | 992.9 hPa | - | - | - | - |
| 1777992326 | 11.11° C | 10% | 992.9 hPa | - | - | - | - |
| 1777991726 | 11.11° C | 10% | 993.2 hPa | - | - | - | - |
| 1777991127 | 11.11° C | 10% | 993.2 hPa | - | - | - | - |
| 1777990527 | 11.11° C | 10% | 993.2 hPa | - | - | - | - |
| 1777989927 | 11.11° C | 10% | 993.2 hPa | - | - | - | - |
| 1777989327 | 11.67° C | 99% | 993.2 hPa | - | - | - | - |
| 1777988727 | 12.22° C | 94% | 993.3 hPa | - | - | - | - |
| 1777988127 | 12.22° C | 94% | 993.3 hPa | - | - | - | - |
| 1777987527 | 12.78° C | 94% | 993.4 hPa | - | - | - | - |
| 1777986926 | 13.33° C | 89% | 993.5 hPa | - | - | - | - |
| 1777986326 | 13.89° C | 83% | 993.5 hPa | - | - | - | - |
| 1777985727 | 13.89° C | 82% | 993.5 hPa | - | - | - | - |
| 1777985126 | 15° C | 78% | 993.5 hPa | - | - | - | - |
* Rain since midnight (hover to see other rain measurements)
** Current wind speed in m/s (hover to see current wind gust speed)